[[{"header":{"parameterUnit":"m.s-1","parameterCategory":1,"la1":30.2991,"la2":30.254,"lo1":-89.0895,"lo2":-89.0444,"dy":0.0017,"dx":0.0017,"nx":28,"ny":28,"refTime":"2023-10-13T09:00:00:Z","depth":0,"parameterNumber":2,"parameterNumberName":"U-component_of_WINDS"},"data":[0,0,0,0,0,0,0,0,0,0,0,0,0,0,0,0,0,0,0,0,0,0,0,0,0,0,0,0,0,0,0,0,0,0,0,0,0,0,0,0,0,0,0,0,0,0,0,0,0,0,0,0,0,0,0,0,0,0,2.9172,2.9173,0,2.9208,2.9208,2.9208,2.9169,2.9167,2.9166,2.9165,2.9199,2.9202,2.9204,0,0,0,0,0,0,0,0,0,0,0,0,0,2.9071,2.9074,2.9172,2.9173,2.9173,2.9208,2.9208,2.9208,2.9169,2.9167,2.9166,2.9164,2.9199,2.9201,2.9204,0,0,0,0,0,0,0,0,0,0,0,0,0,2.9112,2.9074,2.9172,2.9158,2.9157,2.9207,2.9208,2.9209,2.917,2.9167,2.9165,2.9163,2.9198,2.9201,2.9204,2.9271,0,0,2.9215,2.9217,0,0,0,0,0,0,0,0,2.911,2.9116,2.9159,2.9159,2.9158,2.9182,2.9185,2.9229,2.917,2.9165,2.9164,2.9162,2.9195,2.9199,2.921,2.9272,2.9274,2.9215,2.9217,2.9219,2.922,0,0,0,0,0,0,0,2.9107,2.9114,2.9186,2.916,2.9159,2.915,2.9153,2.9193,2.9192,2.9165,2.9162,2.9167,2.9194,2.9207,2.9211,2.9274,2.9215,2.9218,2.922,2.9222,2.9394,2.9397,0,0,0,0,0,0,2.9106,2.9112,2.9185,2.9187,2.9128,2.9153,2.9157,2.9176,2.9191,2.9192,2.9169,2.9165,2.9202,2.9207,2.9212,2.9291,2.9219,2.9222,2.9224,2.9392,2.9395,2.9398,0,0,0,0,0,0,2.9104,2.9113,2.9184,2.9149,2.9157,2.9157,2.9179,2.9178,2.9191,2.9194,2.9194,2.9182,2.92,2.9207,2.9257,2.9292,2.9224,2.9227,2.9389,2.9393,2.9396,2.945,0,0,0,0,0,0,2.9101,2.9112,2.9137,2.915,2.9159,2.9228,2.9182,2.918,2.9197,2.9192,2.9207,2.9207,2.9199,2.9252,2.926,2.9295,2.923,2.9386,2.9391,2.9395,2.9445,2.9455,2.9464,0,0,0,0,0,2.9098,2.915,2.9138,2.9148,2.919,2.923,2.9236,2.9226,2.92,2.9225,2.9228,2.9206,2.9287,2.9257,2.9266,2.9303,2.9383,2.9389,2.9395,2.9441,2.9453,2.9464,0,0,0,0,0,0,2.914,2.9151,2.9139,2.9197,2.9213,2.9223,2.9255,2.9239,2.9263,2.9257,2.9244,2.9248,2.9301,2.9307,2.9274,2.9369,2.9331,2.9339,2.9363,2.9375,2.9384,2.9381,2.9232,0,0,0,0,0,2.9157,2.9188,2.9196,2.9247,2.9256,2.9254,2.9271,2.9263,2.9279,2.9285,2.9291,2.9308,2.9337,2.9356,2.9383,2.9446,2.9449,2.9476,2.9486,2.9493,2.95,2.9535,2.9548,2.9416,2.9416,2.9416,0,0,2.919,2.92,2.9221,2.9256,2.9267,2.9301,2.926,2.9296,2.9321,2.929,2.9338,2.9344,2.9361,2.9419,2.9444,2.9425,2.9537,2.95,2.9506,2.9509,2.9542,2.9555,2.9566,2.942,2.9419,2.9419,0,0,2.9269,2.928,2.9324,2.9337,2.9355,2.9354,2.9365,2.9379,2.9381,2.9429,2.9408,2.9437,2.9487,2.9501,2.9515,2.9602,2.9583,2.9611,2.9659,2.9694,2.9704,2.9713,2.9745,2.9757,2.9617,2.9618,2.9618,0,2.9308,2.9358,2.9348,2.9387,2.9403,2.9379,2.9424,2.9437,2.9463,2.9475,2.9454,2.9517,2.9527,2.9588,2.961,2.9621,2.9634,2.9608,2.9704,2.9713,2.9721,2.9751,2.9763,2.9621,2.9621,2.962,2.962,0,2.9406,2.9441,2.9474,2.9501,2.9522,2.9563,2.956,2.9582,2.9573,2.9575,2.9625,2.9636,2.9666,2.968,2.967,2.974,2.9728,2.9706,2.9667,2.9737,2.9765,2.9777,2.9626,2.9624,2.9623,2.9623,0,0,2.951,2.9534,2.9546,2.9559,2.9579,2.9606,2.9647,2.9677,2.9696,2.9716,2.9751,2.9795,2.9775,2.9791,2.9783,2.9813,2.9883,2.9787,2.9787,2.9805,2.9962,2.9979,2.9992,2.9871,2.9874,2.9875,2.9961,0,2.959,2.9661,2.9655,2.9723,2.9756,2.9734,2.9771,2.9787,2.979,2.9819,2.9822,2.9854,2.9825,2.9834,2.9864,2.9868,2.9914,2.9862,2.9904,2.9905,2.99,3.0007,3.0024,3.0104,2.9972,2.9973,2.9975,0,2.9691,2.9716,2.9788,2.9805,2.9818,2.9851,2.9879,2.9906,2.9925,2.9925,2.9944,2.9932,2.9974,2.9936,2.9995,2.9959,2.9976,2.9981,2.9984,2.9987,2.9944,3.0013,3.0129,3.0141,2.9992,2.9991,2.9989,0,2.9761,2.9812,2.9862,2.9874,2.9895,2.9918,2.9928,2.9945,2.9964,2.9989,3.0001,3.003,3.0046,3.0069,3.0065,3.0037,3.0126,3.0086,3.0127,3.0128,3.0146,3.0145,3.0267,3.0158,3.0157,3.0157,3.0157,0,2.985,2.9895,2.9894,2.9925,2.9975,2.9968,3.0018,3.0025,3.004,3.0073,3.0056,3.0086,3.008,3.011,3.0108,3.0158,3.0165,3.0167,3.0165,3.0168,3.0168,3.0178,3.0173,3.016,3.016,3.0159,3.0158,0,2.9935,2.9937,2.999,3.0006,3.0012,3.0048,3.0062,3.0091,3.0094,3.0135,3.0145,3.0149,3.0184,3.0184,3.0223,3.0222,3.0283,3.0275,3.0277,3.0275,3.0317,3.0313,3.0449,3.0467,3.0346,3.0348,3.0349,0,2.9992,3.0026,3.0047,3.0068,3.008,3.0113,3.0133,3.0128,3.015,3.0175,3.0202,3.0236,3.0263,3.0321,3.0328,3.0359,3.0352,3.0398,3.0356,3.0359,3.0353,3.0351,3.0355,3.0406,3.0407,3.0408,3.0409,0,3.0092,3.0092,3.0122,3.0152,3.0177,3.0201,3.0222,3.024,3.0238,3.0263,3.03,3.0321,3.0363,3.0398,3.0428,3.0438,3.0424,3.0422,3.0433,3.0436,3.0436,3.0437,3.0299,3.0419,3.0418,3.0417,3.0417,3.0416,3.0165,3.0196,3.0216,3.025,3.0266,3.0287,3.0316,3.0324,3.0354,3.0389,3.0384,3.0426,3.0446,3.0485,3.0498,3.0531,3.0515,3.0531,3.0535,3.0539,3.0544,3.0431,3.0536,3.0536,3.0536,3.0536,3.0535,0,3.0265,3.0278,3.0309,3.0341,3.0369,3.0354,3.0378,3.0401,3.0438,3.0458,3.0486,3.0529,3.0563,3.0574,3.0607,3.0631,3.0625,3.064,3.0638,3.0641,3.0556,3.0543,3.0644,3.0644,3.0644,3.0644,3.0644,3.0644,3.032,3.0371,3.0374,3.0433,3.0445,3.0486,3.0501,3.0521,3.0537,3.0586,3.0615,3.0622,3.0639,3.0674,3.0705,3.0707,3.072,3.0738,3.0737,3.0658,3.0647,3.0636,3.0624,3.0741,3.0741,3.0819,3.082,3.0821]},{"header":{"parameterUnit":"m.s-1","parameterCategory":1,"la1":30.2991,"la2":30.254,"lo1":-89.0895,"lo2":-89.0444,"dy":0.0017,"dx":0.0017,"nx":28,"ny":28,"refTime":"2023-10-13T09:00:00:Z","depth":0,"parameterNumber":3,"parameterNumberName":"V-component_of_WINDS"},"data":[0,0,0,0,0,0,0,0,0,0,0,0,0,0,0,0,0,0,0,0,0,0,0,0,0,0,0,0,0,0,0,0,0,0,0,0,0,0,0,0,0,0,0,0,0,0,0,0,0,0,0,0,0,0,0,0,0,0,-7.3452,-7.3453,0,-7.3609,-7.3611,-7.3613,-7.3545,-7.3541,-7.3537,-7.3534,-7.3691,-7.3698,-7.3706,0,0,0,0,0,0,0,0,0,0,0,0,0,-7.3088,-7.3095,-7.3451,-7.3453,-7.3455,-7.3609,-7.3611,-7.3613,-7.3546,-7.3541,-7.3536,-7.3532,-7.3688,-7.3697,-7.3706,0,0,0,0,0,0,0,0,0,0,0,0,0,-7.3246,-7.3097,-7.3451,-7.344,-7.3441,-7.3609,-7.3611,-7.3614,-7.3547,-7.3541,-7.3535,-7.353,-7.3685,-7.3696,-7.3708,-7.3894,0,0,-7.3743,-7.3748,0,0,0,0,0,0,0,0,-7.3237,-7.3259,-7.344,-7.3441,-7.3442,-7.3552,-7.3541,-7.3708,-7.3548,-7.3506,-7.3534,-7.3527,-7.3649,-7.3663,-7.3705,-7.3901,-7.3908,-7.3744,-7.3751,-7.3756,-7.376,0,0,0,0,0,0,0,-7.3226,-7.3252,-7.3514,-7.3443,-7.3444,-7.3426,-7.3443,-7.3572,-7.3608,-7.351,-7.3505,-7.3525,-7.3648,-7.3694,-7.3708,-7.391,-7.3744,-7.3754,-7.3761,-7.3766,-7.4269,-7.4275,0,0,0,0,0,0,-7.3216,-7.3243,-7.3509,-7.3518,-7.3324,-7.3438,-7.3456,-7.3522,-7.3606,-7.3613,-7.353,-7.3521,-7.3677,-7.3695,-7.3713,-7.3938,-7.3756,-7.3767,-7.3774,-7.4262,-7.427,-7.4277,0,0,0,0,0,0,-7.3208,-7.324,-7.3502,-7.338,-7.3412,-7.345,-7.3526,-7.3528,-7.3574,-7.3621,-7.3627,-7.357,-7.3673,-7.3697,-7.385,-7.3943,-7.3772,-7.3783,-7.4255,-7.4265,-7.4274,-7.4389,0,0,0,0,0,0,-7.3198,-7.3238,-7.331,-7.3382,-7.3419,-7.3638,-7.3531,-7.3536,-7.3595,-7.3585,-7.3661,-7.3668,-7.3671,-7.3833,-7.3862,-7.3956,-7.3792,-7.4247,-7.4259,-7.4271,-7.4377,-7.4401,-7.4422,0,0,0,0,0,-7.3185,-7.3334,-7.3314,-7.3346,-7.351,-7.3644,-7.3664,-7.3666,-7.3603,-7.3675,-7.3705,-7.3665,-7.3928,-7.385,-7.3881,-7.398,-7.4241,-7.4256,-7.427,-7.4367,-7.4396,-7.4421,0,0,0,0,0,0,-7.327,-7.3343,-7.3321,-7.3499,-7.3566,-7.3632,-7.3723,-7.3697,-7.3782,-7.3769,-7.3766,-7.3784,-7.3943,-7.3976,-7.3888,-7.4165,-7.4075,-7.4096,-7.4138,-7.4166,-7.4188,-7.4177,-7.3802,0,0,0,0,0,-7.3309,-7.3413,-7.3471,-7.3622,-7.3657,-7.3685,-7.3743,-7.3739,-7.3807,-7.3835,-7.3876,-7.3943,-7.4041,-7.4105,-7.4197,-7.4381,-7.4397,-7.4464,-7.4487,-7.4505,-7.4524,-7.4625,-7.4656,-7.4324,-7.4324,-7.4324,0,0,-7.3391,-7.3445,-7.351,-7.3641,-7.3692,-7.3799,-7.3709,-7.3825,-7.3904,-7.3852,-7.4,-7.4033,-7.4107,-7.4277,-7.4354,-7.431,-7.4619,-7.4523,-7.4538,-7.4546,-7.4643,-7.4674,-7.4702,-7.4334,-7.4332,-7.4331,0,0,-7.3596,-7.3647,-7.3779,-7.3833,-7.3912,-7.393,-7.3962,-7.4033,-7.4054,-7.4203,-7.4166,-7.4259,-7.4427,-7.4482,-7.4532,-7.476,-7.4726,-7.479,-7.4907,-7.5006,-7.5032,-7.5055,-7.5137,-7.5166,-7.4808,-7.4808,-7.4808,0,-7.3688,-7.3849,-7.3849,-7.397,-7.4028,-7.3988,-7.4121,-7.4173,-7.4278,-7.4319,-7.4269,-7.448,-7.4527,-7.471,-7.4766,-7.4808,-7.4844,-7.4781,-7.5028,-7.5051,-7.5073,-7.5151,-7.5182,-7.4815,-7.4815,-7.4814,-7.4813,0,-7.3958,-7.407,-7.4167,-7.4273,-7.4342,-7.4468,-7.4487,-7.4557,-7.4547,-7.457,-7.4722,-7.4778,-7.4881,-7.4924,-7.4914,-7.5106,-7.5077,-7.5028,-7.4937,-7.5112,-7.5185,-7.5215,-7.4826,-7.4823,-7.4821,-7.4819,0,0,-7.422,-7.4325,-7.4361,-7.4409,-7.4495,-7.4581,-7.4705,-7.4809,-7.4869,-7.4943,-7.5047,-7.5192,-7.5147,-7.5204,-7.52,-7.5287,-7.5465,-7.5227,-7.5228,-7.527,-7.5681,-7.5718,-7.5753,-7.5443,-7.5449,-7.5453,-7.5675,0,-7.4432,-7.4652,-7.4657,-7.4858,-7.4962,-7.4926,-7.5034,-7.5098,-7.5123,-7.5214,-7.524,-7.5343,-7.5276,-7.5311,-7.5395,-7.5426,-7.5548,-7.5409,-7.554,-7.5544,-7.5524,-7.5791,-7.5831,-7.6037,-7.5704,-7.5709,-7.5712,0,-7.4708,-7.4794,-7.5007,-7.5079,-7.5123,-7.5221,-7.5317,-7.5404,-7.5476,-7.5488,-7.5553,-7.5537,-7.5663,-7.5568,-7.5742,-7.5648,-7.5702,-7.5725,-7.5733,-7.5746,-7.5639,-7.5812,-7.6103,-7.6135,-7.5757,-7.5754,-7.575,0,-7.4879,-7.5047,-7.5197,-7.5239,-7.5327,-7.5397,-7.5436,-7.5502,-7.5565,-7.5648,-7.5689,-7.5785,-7.5837,-7.5912,-7.5922,-7.5852,-7.6097,-7.6003,-7.6111,-7.6111,-7.6164,-7.6161,-7.6469,-7.6198,-7.6197,-7.6196,-7.6196,0,-7.5116,-7.5248,-7.5275,-7.5367,-7.5514,-7.5518,-7.5662,-7.5696,-7.5756,-7.5853,-7.5826,-7.5918,-7.5925,-7.6019,-7.6028,-7.6171,-7.6195,-7.6208,-7.6209,-7.6211,-7.621,-7.6246,-7.6233,-7.6205,-7.6203,-7.6201,-7.62,0,-7.5332,-7.5356,-7.5516,-7.5587,-7.5608,-7.5713,-7.5774,-7.5861,-7.5884,-7.6007,-7.6037,-7.6072,-7.6181,-7.6199,-7.6326,-7.6332,-7.6505,-7.649,-7.6481,-7.648,-7.6587,-7.6577,-7.693,-7.6977,-7.6674,-7.6677,-7.6679,0,-7.5482,-7.5583,-7.5665,-7.573,-7.5774,-7.5877,-7.5942,-7.5949,-7.6017,-7.6108,-7.6185,-7.6292,-7.6378,-7.6555,-7.6591,-7.6689,-7.6677,-7.6794,-7.6691,-7.6691,-7.668,-7.6674,-7.6685,-7.6814,-7.6817,-7.682,-7.6822,0,-7.5746,-7.5753,-7.5848,-7.5948,-7.6026,-7.6104,-7.6177,-7.6231,-7.6248,-7.6326,-7.6439,-7.6506,-7.6638,-7.6745,-7.6843,-7.6882,-7.6856,-7.6854,-7.6884,-7.6888,-7.6879,-7.6887,-7.6536,-7.6846,-7.6843,-7.6842,-7.684,-7.6839,-7.5934,-7.6023,-7.6096,-7.6202,-7.6259,-7.6329,-7.6416,-7.645,-7.6545,-7.6655,-7.6653,-7.6777,-7.6847,-7.6976,-7.7022,-7.7119,-7.7081,-7.7124,-7.7135,-7.7146,-7.7158,-7.6864,-7.7136,-7.7135,-7.7135,-7.7134,-7.7134,0,-7.6197,-7.6243,-7.6341,-7.6447,-7.6531,-7.65,-7.6581,-7.6653,-7.6763,-7.6832,-7.6918,-7.7048,-7.7152,-7.7198,-7.73,-7.7368,-7.7359,-7.7395,-7.739,-7.74,-7.7185,-7.7149,-7.7401,-7.7401,-7.7401,-7.7401,-7.7401,-7.7401,-7.6345,-7.6494,-7.651,-7.6687,-7.6731,-7.6854,-7.6903,-7.6968,-7.7023,-7.717,-7.7258,-7.7287,-7.7346,-7.7453,-7.7547,-7.7557,-7.7596,-7.7639,-7.7644,-7.7442,-7.7415,-7.7389,-7.7356,-7.7647,-7.7647,-7.7851,-7.7853,-7.7854]}]]